Weather History for Solenzara, France

Change the Weather History Date:

Friday, December 14, 2012

  Actual Average (LFKJ) Record (LFKJ)
Temperature  
Mean Temperature 52 °F -  
Max Temperature 60 °F 57 °F 64 °F (2000)
Min Temperature 44 °F 40 °F 33 °F (1997)
Degree Days  
Heating Degree Days 13    
Growing Degree Days 2 (Base 50)    
Moisture  
Dew Point 45 °F    
Average Humidity 76    
Maximum Humidity 87    
Minimum Humidity 59    
Precipitation  
Precipitation 0.00 in - - ()
Sea Level Pressure  
Sea Level Pressure 29.96 in    
Wind  
Wind Speed 5 mph ()    
Max Wind Speed 22 mph    
Max Gust Speed -    
Visibility 6.2 miles    
Events Rain    
Averages and records for this station are not official NWS values.
T = Trace of Precipitation, MM = Missing Value Source: Averaged Metar Reports

Daily Weather History Graph

Daily Weather History Graph

Search for Another Location

Airport:

Trip Planner

Search our weather history database for the weather conditions in past years. The results will help you decide how hot, cold, wet, or windy it might be!

Date:

Astronomy

Dec. 14, 2012 Rise Set
Actual Time 7:42 AM CET 4:51 PM CET
Civil Twilight 7:10 AM CET 5:23 PM CET
Nautical Twilight 6:35 AM CET 5:58 PM CET
Astronomical Twilight 6:01 AM CET 6:32 PM CET
Moon 8:32 AM CET (12/14) 6:25 PM CET (12/14)
Length of Visible Light 10h 12m
Length of Day
9h 09m
New Moon, 2% of the Moon is Illuminated
Dec 14
New Moon
Dec 20
First Quarter
Dec 28
Full
Jan 5
Last Quarter
Jan 11
New

Hourly Weather History & Observations

Time (CET) Temp. Windchill Dew Point Humidity Pressure Visibility Wind Dir Wind Speed Gust Speed Precip Events Conditions
12:30 AM 48.2 °F - 41.0 °F 76% 30.01 in 6.2 mi WSW 3.5 mph - N/A Rain Light Rain
1:00 AM 48.2 °F - 41.0 °F 76% 30.01 in 6.2 mi Variable 3.5 mph - N/A   Overcast
1:30 AM 48.2 °F - 41.0 °F 76% 30.01 in 6.2 mi West 5.8 mph - N/A   Overcast
2:00 AM 48.2 °F - 41.0 °F 76% 30.01 in 6.2 mi Variable 2.3 mph - N/A   Mostly Cloudy
2:30 AM 48.2 °F - 41.0 °F 76% 29.98 in 6.2 mi NW 4.6 mph - N/A   Mostly Cloudy
3:00 AM 48.2 °F - 39.2 °F 71% 29.98 in 6.2 mi NW 4.6 mph - N/A   Overcast
3:30 AM 46.4 °F 44.3 °F 39.2 °F 76% 29.98 in 6.2 mi West 4.6 mph - N/A   Mostly Cloudy
4:00 AM 46.4 °F 43.5 °F 39.2 °F 76% 29.95 in 6.2 mi West 5.8 mph - N/A   Unknown
4:30 AM 46.4 °F 43.5 °F 39.2 °F 76% 29.95 in 6.2 mi West 5.8 mph - N/A   Unknown
5:00 AM 44.6 °F 42.2 °F 39.2 °F 81% 29.95 in 6.2 mi WNW 4.6 mph - N/A   Unknown
5:30 AM 44.6 °F 40.7 °F 39.2 °F 81% 29.95 in 6.2 mi West 6.9 mph - N/A   Unknown
6:00 AM 44.6 °F 40.7 °F 39.2 °F 81% 29.95 in 6.2 mi West 6.9 mph - N/A   Unknown
6:30 AM 44.6 °F 41.4 °F 39.2 °F 81% 29.95 in 6.2 mi West 5.8 mph - N/A   Unknown
7:00 AM 44.6 °F 43.1 °F 39.2 °F 81% 29.95 in 6.2 mi WNW 3.5 mph - N/A   Unknown
7:30 AM 44.6 °F 43.1 °F 41.0 °F 87% 29.95 in 6.2 mi Variable 3.5 mph - N/A   Unknown
8:00 AM 44.6 °F 42.2 °F 41.0 °F 87% 29.95 in 6.2 mi West 4.6 mph - N/A   Unknown
8:30 AM 46.4 °F 45.2 °F 41.0 °F 81% 29.95 in 6.2 mi Variable 3.5 mph - N/A   Unknown
9:00 AM 48.2 °F - 41.0 °F 76% 29.95 in 6.2 mi West 3.5 mph - N/A   Unknown
9:30 AM 50.0 °F - 42.8 °F 76% 29.98 in 6.2 mi SSW 3.5 mph - N/A   Unknown
10:00 AM 51.8 °F - 44.6 °F 76% 29.98 in 6.2 mi Variable 2.3 mph - N/A   Overcast
10:30 AM 51.8 °F - 44.6 °F 76% 29.98 in 6.2 mi Variable 2.3 mph - N/A   Scattered Clouds
11:00 AM 53.6 °F - 46.4 °F 77% 29.98 in 6.2 mi Variable 2.3 mph - N/A   Mostly Cloudy
11:30 AM 57.2 °F - 46.4 °F 67% 29.98 in 6.2 mi Variable 2.3 mph - N/A   Overcast
12:00 PM 57.2 °F - 48.2 °F 72% 29.95 in 6.2 mi Variable 2.3 mph - N/A   Mostly Cloudy
12:30 PM 59.0 °F - 48.2 °F 67% 29.95 in 6.2 mi Variable 3.5 mph - N/A   Overcast
1:00 PM 59.0 °F - 48.2 °F 67% 29.95 in 6.2 mi Variable 2.3 mph - N/A   Overcast
1:30 PM 59.0 °F - 50.0 °F 72% 29.95 in 6.2 mi South 11.5 mph - N/A   Mostly Cloudy
2:00 PM 57.2 °F - 51.8 °F 82% 29.95 in 6.2 mi SSE 17.3 mph - N/A   Mostly Cloudy
2:30 PM 57.2 °F - 50.0 °F 77% 29.95 in 6.2 mi South 9.2 mph - N/A   Overcast
3:00 PM 57.2 °F - 50.0 °F 77% 29.95 in 6.2 mi SW 5.8 mph - N/A   Overcast
3:30 PM 55.4 °F - 50.0 °F 82% 29.95 in 6.2 mi Variable 2.3 mph - N/A Rain Light Rain
4:00 PM 55.4 °F - 48.2 °F 77% 29.95 in 6.2 mi Variable 2.3 mph - N/A   Overcast
4:30 PM 55.4 °F - 48.2 °F 77% 29.95 in 6.2 mi Variable 3.5 mph - N/A   Overcast
5:00 PM 53.6 °F - 48.2 °F 82% 29.95 in 6.2 mi West 3.5 mph - N/A   Mostly Cloudy
5:30 PM 53.6 °F - 48.2 °F 82% 29.98 in 6.2 mi West 3.5 mph - N/A   Overcast
6:00 PM 53.6 °F - 48.2 °F 82% 29.98 in 6.2 mi West 4.6 mph - N/A   Overcast
6:30 PM 53.6 °F - 48.2 °F 82% 29.95 in 6.2 mi Variable 1.2 mph - N/A   Mostly Cloudy
7:00 PM 53.6 °F - 48.2 °F 82% 29.95 in 6.2 mi WSW 4.6 mph - N/A   Mostly Cloudy
7:30 PM 53.6 °F - 48.2 °F 82% 29.95 in 6.2 mi Variable 3.5 mph - N/A   Mostly Cloudy
8:00 PM 55.4 °F - 48.2 °F 77% 29.95 in 6.2 mi Variable 3.5 mph - N/A   Mostly Cloudy
8:30 PM 59.0 °F - 50.0 °F 72% 29.95 in 6.2 mi South 16.1 mph - N/A   Unknown
9:00 PM 59.0 °F - 50.0 °F 72% 29.95 in 6.2 mi South 17.3 mph - N/A   Overcast
9:30 PM 60.8 °F - 48.2 °F 63% 29.95 in 6.2 mi South 21.9 mph - N/A   Overcast
10:00 PM 59.0 °F - 48.2 °F 67% 29.95 in 6.2 mi South 17.3 mph - N/A   Overcast
10:30 PM 60.8 °F - 46.4 °F 59% 29.95 in 6.2 mi South 15.0 mph - N/A   Overcast
11:00 PM 60.8 °F - 46.4 °F 59% 29.95 in 6.2 mi SSE 16.1 mph - N/A   Overcast
11:30 PM 60.8 °F - 46.4 °F 59% 29.95 in 6.2 mi Variable 9.2 mph - N/A   Mostly Cloudy